This is the latest recevied weather packets stored in our database for station/object K7PMV-13. If no packets are shown the sender has not sent any weather packets the latest 10 day(s).
| Time | Temp. | Humidity | Pressure | Rain* | Wind** | Luminosity | Snow |
|---|---|---|---|---|---|---|---|
| 1777416225 | 29.44° C | 17% | 1010.1 hPa | 0 mm | - | 638 W/m² | - |
| 1777415923 | 29.44° C | 18% | 1010.2 hPa | 0 mm | - | 642 W/m² | - |
| 1777415619 | 29.44° C | 18% | 1010.3 hPa | 0 mm | - | 650 W/m² | - |
| 1777415317 | 30° C | 18% | 1010.3 hPa | 0 mm | - | 694 W/m² | - |
| 1777415014 | 29.44° C | 18% | 1010.4 hPa | 0 mm | - | 701 W/m² | - |
| 1777414712 | 30° C | 19% | 1010.4 hPa | 0 mm | - | 656 W/m² | - |
| 1777414410 | 30° C | 19% | 1010.3 hPa | 0 mm | - | 735 W/m² | - |
| 1777414107 | 29.44° C | 19% | 1010.5 hPa | 0 mm | - | 722 W/m² | - |
| 1777413804 | 29.44° C | 19% | 1010.7 hPa | 0 mm | - | 756 W/m² | - |
| 1777413494 | 29.44° C | 19% | 1010.7 hPa | 0 mm | - | 675 W/m² | - |
| 1777413191 | 30° C | 19% | 1010.9 hPa | 0 mm | - | 775 W/m² | - |
| 1777412888 | 29.44° C | 19% | 1010.9 hPa | 0 mm | - | 810 W/m² | - |
| 1777412585 | 30° C | 19% | 1010.9 hPa | 0 mm | - | 842 W/m² | - |
| 1777412283 | 30° C | 20% | 1011 hPa | 0 mm | - | 853 W/m² | - |
| 1777411980 | 29.44° C | 19% | 1011.1 hPa | 0 mm | - | 686 W/m² | - |
| 1777411678 | 29.44° C | 19% | 1011.3 hPa | 0 mm | - | 816 W/m² | - |
| 1777411374 | 29.44° C | 20% | 1011.2 hPa | 0 mm | - | 821 W/m² | - |
| 1777411071 | 29.44° C | 19% | 1011.3 hPa | 0 mm | - | 784 W/m² | - |
| 1777410768 | 29.44° C | 18% | 1011.3 hPa | 0 mm | - | 863 W/m² | - |
| 1777410465 | 29.44° C | 20% | 1011.4 hPa | 0 mm | - | 870 W/m² | - |
| 1777410163 | 28.89° C | 19% | 1011.4 hPa | 0 mm | - | 875 W/m² | - |
| 1777409860 | 29.44° C | 20% | 1011.5 hPa | 0 mm | - | 900 W/m² | - |
| 1777409558 | 29.44° C | 20% | 1011.7 hPa | 0 mm | - | 928 W/m² | - |
| 1777409254 | 28.89° C | 19% | 1011.8 hPa | 0 mm | - | 856 W/m² | - |
| 1777408953 | 28.89° C | 21% | 1011.8 hPa | 0 mm | - | 895 W/m² | - |
* Rain latest hour (hover to see other rain measurements)
** Current wind speed in m/s (hover to see current wind gust speed)